Greenland, New Hampshire, United States (03840)
Lat: 43.04N, Lon: 70.83W
Wx Zone: NHZ014
Local Info
Past Weather Observations for Wednesday, May 25, 2016

NOTE: This archive is for the closest National Weather Service station to Greenland. Information may differ from the station used for current weather conditions.

Click here for Long-term Archive

Time Weather Temperature Dewpoint Humidity Pressure Winds Precip Visibility
23:58
Partly Cloudy
61°F / 16°C 55°F / 13°C 83% 30.01 in
(1016 mb)
SSE 6.9 mph
(SSE 11 kph)
- 10SM
22:58
Partly Cloudy
64°F / 18°C 55°F / 13°C 73% 29.98 in
(1015 mb)
SSW 2.3 mph
(SSW 4 kph)
- 10SM
21:58
Partly Cloudy
68°F / 20°C 54°F / 12°C 60% 29.98 in
(1015 mb)
NNW 9.2 mph
(NNW 15 kph)
- 10SM
20:58
Partly Cloudy
72°F / 22°C 54°F / 12°C 53% 29.95 in
(1014 mb)
SSW 5.8 mph
(SSW 9 kph)
- 10SM
19:58
Partly Cloudy
73°F / 23°C 54°F / 12°C 50% 29.95 in
(1014 mb)
Variable 3.5 mph
(Variable 6 kph)
- 10SM
19:30
Partly Cloudy
75°F / 24°C 54°F / 12°C 47% 29.92 in
(1013 mb)
SSW 4.6 mph
(SSW 7 kph)
- 10SM
18:58
Mostly Cloudy
72°F / 22°C 61°F / 16°C 69% 29.92 in
(1013 mb)
Variable 4.6 mph
(Variable 7 kph)
- 10SM
17:58
Mostly Cloudy
73°F / 23°C 61°F / 16°C 65% 29.92 in
(1013 mb)
SE 3.5 mph
(SE 6 kph)
- 10SM
16:58
Partly Cloudy
77°F / 25°C 59°F / 15°C 54% 29.89 in
(1012 mb)
SE 5.8 mph
(SE 9 kph)
- 10SM
15:58
Mostly Cloudy
77°F / 25°C 59°F / 15°C 54% 29.89 in
(1012 mb)
SE 6.9 mph
(SE 11 kph)
- 10SM
14:58
Mostly Cloudy
75°F / 24°C 59°F / 15°C 57% 29.92 in
(1013 mb)
SE 5.8 mph
(SE 9 kph)
- 10SM
13:58
Mostly Cloudy
72°F / 22°C 59°F / 15°C 65% 29.92 in
(1013 mb)
SE 8.1 mph
(SE 13 kph)
- 10SM
12:58
Mostly Cloudy
75°F / 24°C 61°F / 16°C 61% 29.92 in
(1013 mb)
SE 9.2 mph
(SE 15 kph)
- 10SM
11:58
Partly Cloudy
75°F / 24°C 61°F / 16°C 61% 29.95 in
(1014 mb)
SE 6.9 mph
(SE 11 kph)
- 10SM
10:58
Partly Cloudy
70°F / 21°C 59°F / 15°C 69% 29.98 in
(1015 mb)
Variable 4.6 mph
(Variable 7 kph)
- 10SM
09:58
Partly Cloudy
64°F / 18°C 57°F / 14°C 78% 29.98 in
(1015 mb)
Variable 3.5 mph
(Variable 6 kph)
- 10SM
09:38
Mostly Cloudy
63°F / 17°C 61°F / 16°C 94% 30.01 in
(1016 mb)
SW 6.9 mph
(SW 11 kph)
- 10SM
09:20
Overcast
61°F / 16°C 59°F / 15°C 94% 30.01 in
(1016 mb)
SSW 5.8 mph
(SSW 9 kph)
- 10SM
08:58
Overcast
59°F / 15°C 59°F / 15°C 100% 29.98 in
(1015 mb)
SSW 4.6 mph
(SSW 7 kph)
- 10SM
07:58
Overcast
57°F / 14°C 57°F / 14°C 100% 29.98 in
(1015 mb)
SW 4.6 mph
(SW 7 kph)
- 7SM
07:28
Overcast
Fog And Mist
57°F / 14°C 57°F / 14°C 100% 29.98 in
(1015 mb)
SSW 4.6 mph
(SSW 7 kph)
- 3SM
07:08
Overcast
Fog And Mist
55°F / 13°C 55°F / 13°C 100% 29.98 in
(1015 mb)
SW 4.6 mph
(SW 7 kph)
- 1 1/4SM
06:58
Overcast
Fog And Mist
55°F / 13°C 55°F / 13°C 100% 29.98 in
(1015 mb)
SW 5.8 mph
(SW 9 kph)
- 3/4SM
06:28
Overcast
Fog
55°F / 13°C 55°F / 13°C 100% 29.98 in
(1015 mb)
SW 5.8 mph
(SW 9 kph)
- 1/2SM
05:58
Obscured
Fog
54°F / 12°C 54°F / 12°C 100% 29.98 in
(1015 mb)
SW 4.6 mph
(SW 7 kph)
- 1/4SM
05:28
Overcast
Fog
54°F / 12°C 52°F / 11°C 94% 29.98 in
(1015 mb)
S 4.6 mph
(S 7 kph)
- 1/4SM
04:58
Overcast
Fog
52°F / 11°C 52°F / 11°C 100% 29.98 in
(1015 mb)
S 4.6 mph
(S 7 kph)
- 1/4SM
04:38
Overcast
Fog And Mist
52°F / 11°C 52°F / 11°C 100% 29.98 in
(1015 mb)
S 3.5 mph
(S 6 kph)
- 3/4SM
04:37
Overcast
Fog
52°F / 11°C 52°F / 11°C 100% 29.98 in
(1015 mb)
S 3.5 mph
(S 6 kph)
- 1/2SM
03:58
Obscured
Fog
52°F / 11°C 52°F / 11°C 100% 29.98 in
(1015 mb)
S 3.5 mph
(S 6 kph)
- 1/8SM
02:58
Obscured
Fog
52°F / 11°C 52°F / 11°C 100% 29.98 in
(1015 mb)
SSE 2.3 mph
(SSE 4 kph)
- 1/4SM
01:58
Obscured
Fog
52°F / 11°C 52°F / 11°C 100% 29.98 in
(1015 mb)
S 2.3 mph
(S 4 kph)
- 1/2SM
01:20
Overcast
Fog And Mist
52°F / 11°C 52°F / 11°C 100% 29.98 in
(1015 mb)
SSE 1.2 mph
(SSE 2 kph)
- 3/4SM
00:58
Overcast
Fog
52°F / 11°C 52°F / 11°C 100% 29.98 in
(1015 mb)
S 3.5 mph
(S 6 kph)
- 1/2SM
00:28
Overcast
Fog
52°F / 11°C 52°F / 11°C 100% 29.98 in
(1015 mb)
E 2.3 mph
(E 4 kph)
- 1/2SM
Time Weather Temperature Dewpoint Humidity Pressure Winds Precip Visibility


Weather for websites

WeatherForYou.com, LLC is not responsible for any damages or problems caused by this service. Current weather conditions are obtained from the closest station including government and personal stations which may have varying degrees of accuracy. Weather forecasts are derived from the NOAA NDFD. Like all things, this site belongs to Jesus Christ... He just trusts us to maintain it. If you have any questions or comments email webmaster@weatherforyou.com

Copyright © 2016, WeatherForYou.com LLC. All rights reserved.